FW4300 Weather Reports


Display with metric or nautical units.
time (UTC)temp
F
wind
direction
speed
MPH
gust
MPH
rain 1hr
in
rain 24hr
in
rain mn
in
humidity
%
barometer
mb
20260906190025 86 117 3.0 9.0 0.00 0.00 0.00 65 1014.1
20260906185522 85 53 4.0 9.0 0.00 0.00 0.00 65 1014.1
20260906185023 85 92 3.0 7.0 0.00 0.00 0.00 66 1014.2
20260906184521 84 108 3.0 7.0 0.00 0.00 0.00 66 1014.3
20260906184022 85 95 4.0 9.0 0.00 0.00 0.00 66 1014.4
20260906183529 86 101 3.0 9.0 0.00 0.00 0.00 65 1014.2
20260906183033 87 114 4.0 9.0 0.00 0.00 0.00 64 1014.2
20260906182523 87 159 4.0 8.0 0.00 0.00 0.00 64 1014.4
20260906182024 87 90 4.0 7.0 0.00 0.00 0.00 63 1014.4
20260906181528 88 119 4.0 9.0 0.00 0.00 0.00 62 1014.6
20260906181019 88 150 3.0 9.0 0.00 0.00 0.00 62 1014.6
20260906180519 88 68 3.0 8.0 0.00 0.00 0.00 61 1014.7
20260906180034 89 137 2.0 8.0 0.00 0.00 0.00 62 1014.8
20260906175519 88 161 2.0 7.0 0.00 0.00 0.00 63 1014.8
20260906175025 88 105 2.0 8.0 0.00 0.00 0.00 63 1014.8
20260906174531 87 79 4.0 11.0 0.00 0.00 0.00 63 1015.0
20260906174018 87 80 6.0 11.0 0.00 0.00 0.00 62 1015.0
20260906173517 87 73 5.0 9.0 0.00 0.00 0.00 63 1015.1
20260906173021 87 94 3.0 12.0 0.00 0.00 0.00 64 1015.1
20260906172516 87 129 4.0 12.0 0.00 0.00 0.00 63 1015.2
20260906172016 88 95 4.0 8.0 0.00 0.00 0.00 63 1015.2
20260906171517 87 158 1.0 8.0 0.00 0.00 0.00 63 1015.2
20260906171017 86 82 2.0 8.0 0.00 0.00 0.00 64 1015.3
20260906170523 85 81 2.0 9.0 0.00 0.00 0.00 65 1015.3
20260906170016 84 118 3.0 9.0 0.00 0.00 0.00 66 1015.6
20260906165516 84 116 2.0 8.0 0.00 0.00 0.00 66 1015.6
20260906165021 83 91 2.0 6.0 0.00 0.00 0.00 67 1015.5
20260906164532 83 123 2.0 6.0 0.00 0.00 0.00 67 1015.4
20260906164017 83 94 3.0 6.0 0.00 0.00 0.00 67 1015.6
20260906163515 83 125 4.0 7.0 0.00 0.00 0.00 66 1015.8
20260906163024 83 174 3.0 7.0 0.00 0.00 0.00 66 1015.9
20260906162515 84 117 3.0 6.0 0.00 0.00 0.00 66 1015.9
20260906162014 85 113 4.0 6.0 0.00 0.00 0.00 65 1016.0
20260906161515 85 124 1.0 9.0 0.00 0.00 0.00 64 1016.0
20260906161014 85 126 5.0 9.0 0.00 0.00 0.00 63 1016.0
20260906160514 86 123 5.0 10.0 0.00 0.00 0.00 64 1015.8
20260906160015 86 152 4.0 10.0 0.00 0.00 0.00 64 1015.7
20260906155517 88 122 5.0 9.0 0.00 0.00 0.00 63 1015.7
20260906155015 88 103 4.0 10.0 0.00 0.00 0.00 61 1015.9
20260906154518 89 231 4.0 10.0 0.00 0.00 0.00 61 1016.0
20260906154014 89 174 3.0 9.0 0.00 0.00 0.00 62 1015.8
20260906153513 89 129 5.0 9.0 0.00 0.00 0.00 61 1016.1
20260906153014 89 150 4.0 9.0 0.00 0.00 0.00 61 1016.1
20260906152515 89 179 2.0 8.0 0.00 0.00 0.00 61 1016.2
20260906152016 89 175 3.0 8.0 0.00 0.00 0.00 62 1016.3
20260906151512 89 166 3.0 8.0 0.00 0.00 0.00 61 1016.4
20260906151011 88 167 3.0 8.0 0.00 0.00 0.00 61 1016.4
20260906150513 88 214 3.0 8.0 0.00 0.00 0.00 61 1016.6
20260906150021 87 197 3.0 7.0 0.00 0.00 0.00 64 1016.6
20260906145510 87 146 2.0 8.0 0.00 0.00 0.00 66 1016.7
20260906145008 87 151 2.0 6.0 0.00 0.00 0.00 65 1016.8
20260906144507 87 90 3.0 7.0 0.00 0.00 0.00 63 1016.7
20260906144007 88 168 3.0 6.0 0.00 0.00 0.00 63 1016.7
20260906143506 87 83 2.0 6.0 0.00 0.00 0.00 63 1016.6
20260906143010 87 126 2.0 6.0 0.00 0.00 0.00 63 1016.7
20260906142504 86 105 2.0 6.0 0.00 0.00 0.00 63 1016.6
20260906142004 87 124 2.0 5.0 0.00 0.00 0.00 64 1016.6
20260906141503 86 200 2.0 7.0 0.00 0.00 0.00 64 1016.5
20260906141105 86 131 3.0 7.0 0.00 0.00 0.00 64 1016.5
20260906140502 86 127 2.0 8.0 0.00 0.00 0.00 64 1016.5
20260906140001 86 84 3.0 9.0 0.00 0.01 0.00 64 1016.4
20260906135502 86 110 4.0 9.0 0.00 0.01 0.00 63 1016.4
20260906135059 86 73 3.0 6.0 0.00 0.01 0.00 64 1016.4
20260906134605 85 134 3.0 6.0 0.00 0.01 0.00 65 1016.3
20260906134059 85 209 1.0 6.0 0.00 0.01 0.00 65 1016.3
20260906133558 86 83 2.0 7.0 0.00 0.01 0.00 64 1016.3
20260906133058 86 226 2.0 7.0 0.00 0.01 0.00 64 1016.2
20260906132602 85 122 1.0 5.0 0.00 0.01 0.00 65 1016.4
20260906132056 85 143 2.0 7.0 0.00 0.01 0.00 65 1016.3
20260906131557 85 152 2.0 7.0 0.00 0.01 0.00 65 1016.3
20260906131056 85 187 3.0 6.0 0.00 0.01 0.00 65 1016.2
20260906130559 85 159 1.0 5.0 0.00 0.01 0.00 65 1016.2
20260906130056 85 129 1.0 5.0 0.00 0.01 0.00 65 1016.2
20260906125555 85 110 3.0 5.0 0.00 0.01 0.00 65 1016.2
20260906125056 85 123 2.0 5.0 0.00 0.01 0.00 65 1016.1
20260906124553 85 155 2.0 6.0 0.00 0.01 0.00 65 1016.0
20260906124053 84 162 2.0 6.0 0.00 0.01 0.00 67 1016.0
20260906123551 84 134 0.0 5.0 0.00 0.01 0.00 67 1015.9
20260906123051 84 108 2.0 5.0 0.00 0.01 0.00 66 1015.7
20260906122551 84 114 1.0 6.0 0.00 0.01 0.00 66 1015.7
20260906122051 85 87 2.0 6.0 0.00 0.01 0.00 65 1015.7
20260906121550 85 105 1.0 5.0 0.00 0.01 0.00 66 1015.7
20260906121048 84 116 2.0 5.0 0.00 0.01 0.00 66 1015.6
20260906120547 84 153 1.0 4.0 0.00 0.01 0.00 67 1015.6
20260906120050 83 122 1.0 3.0 0.00 0.01 0.00 68 1015.5
20260906115544 83 122 0.0 0.0 0.00 0.01 0.00 69 1015.6
20260906115042 82 125 0.0 0.0 0.00 0.01 0.00 70 1015.5
20260906114542 82 125 0.0 0.0 0.00 0.01 0.00 70 1015.4
20260906114040 82 120 0.0 0.0 0.00 0.01 0.00 71 1015.2
20260906113539 81 167 0.0 0.0 0.00 0.01 0.00 72 1015.2
20260906113039 81 174 0.0 0.0 0.00 0.01 0.00 72 1015.4
20260906112537 81 176 0.0 0.0 0.00 0.01 0.00 72 1015.2
20260906112037 81 165 0.0 0.0 0.00 0.01 0.00 72 1015.2
20260906111540 81 126 0.0 0.0 0.00 0.01 0.00 73 1015.1
20260906111037 81 148 0.0 0.0 0.00 0.01 0.00 75 1015.1
20260906110536 81 146 0.0 0.0 0.00 0.01 0.00 75 1015.0
20260906110041 80 210 0.0 0.0 0.00 0.01 0.00 76 1015.0
20260906105534 80 174 0.0 0.0 0.00 0.01 0.00 76 1014.9
20260906105032 79 136 0.0 0.0 0.00 0.01 0.00 76 1015.0
20260906104532 79 136 0.0 0.0 0.00 0.01 0.00 76 1015.0
20260906104031 79 136 0.0 0.0 0.00 0.01 0.00 1014.9
20260906103529 0 0.0 0.0 0.00 0.01 0.00 1014.8
20260906103028 0 0.0 0.0 0.00 0.01 0.00 1014.9
20260906102527 0 0.0 0.0 0.00 0.01 0.00 1014.8
20260906102025 0 0.0 0.0 0.00 0.01 0.00 1014.8
20260906101524 0 0.0 0.0 0.00 0.01 0.00 1014.8
20260906101022 0 0.0 0.0 0.00 0.01 0.00 1014.7
20260906100524 0 0.0 0.0 0.00 0.01 0.00 1014.8
20260906100020 0 0.0 0.0 0.00 0.01 0.00 1014.7
20260906095518 0 0.0 0.0 0.00 0.01 0.00 1014.8
20260906095019 0 0.0 0.0 0.00 0.01 0.00 1014.6
20260906094526 0 0.0 0.0 0.00 0.01 0.00 1014.6
20260906094016 0 0.0 0.0 0.00 0.01 0.00 1014.5
20260906093512 0 0.0 0.0 0.00 0.01 0.00 1014.5
20260906093013 0 0.0 0.0 0.00 0.01 0.00 1014.3
20260906092509 0 0.0 0.0 0.00 0.01 0.00 1014.2
20260906092011 0 0.0 0.0 0.00 0.01 0.00 1014.3
20260906091506 0 0.0 0.0 0.00 0.01 0.00 1014.3
20260906091005 0 0.0 0.0 0.00 0.01 0.00 1014.3
20260906090506 0 0.0 0.0 0.00 0.01 0.00 1014.1
20260906085502 0 0.0 0.0 0.00 0.01 0.00 1014.1
20260906085059 0 0.0 0.0 0.00 0.01 0.00 1014.1
20260906084558 0 0.0 0.0 0.00 0.01 0.00 1014.1
20260906084058 0 0.0 0.0 0.00 0.01 0.00 1014.1
20260906083555 0 142 0.0 0.0 0.00 0.01 0.00 1014.1
20260906083054 0 142 0.0 0.0 0.00 0.01 0.00 1014.0
20260906082552 78 146 0.0 0.0 0.00 0.01 0.00 76 1013.9
20260906082052 78 173 0.0 0.0 0.00 0.01 0.00 76 1013.9
20260906081555 78 148 0.0 0.0 0.00 0.01 0.00 75 1013.9
20260906081052 78 150 0.0 0.0 0.00 0.01 0.00 75 1013.9
20260906080552 78 179 0.0 0.0 0.00 0.01 0.00 75 1013.9
20260906080054 78 141 0.0 0.0 0.00 0.01 0.00 75 1013.9
20260906075551 78 129 0.0 0.0 0.00 0.01 0.00 75 1013.9
20260906075055 78 164 0.0 3.0 0.00 0.01 0.00 75 1013.9
20260906074554 78 137 0.0 3.0 0.00 0.01 0.00 75 1013.8
20260906074049 78 151 0.0 3.0 0.00 0.01 0.00 75 1013.9
20260906073548 78 120 0.0 3.0 0.00 0.01 0.00 75 1014.0
20260906073047 78 169 0.0 4.0 0.00 0.01 0.00 76 1014.0
20260906072550 78 151 0.0 3.0 0.00 0.01 0.00 76 1014.1
20260906072047 78 117 0.0 3.0 0.00 0.01 0.00 76 1014.3
20260906071546 78 134 0.0 2.0 0.00 0.01 0.00 76 1014.3
20260906071050 78 127 0.0 2.0 0.00 0.01 0.00 76 1014.3
20260906070547 78 159 0.0 2.0 0.00 0.01 0.00 76 1014.2
20260906070045 78 150 0.0 3.0 0.00 0.01 0.00 76 1014.2
20260906065546 78 134 0.0 3.0 0.00 0.01 0.00 76 1014.3
20260906065046 78 146 0.0 3.0 0.00 0.01 0.00 76 1014.3
20260906064544 78 156 0.0 3.0 0.00 0.01 0.00 76 1014.1
20260906064044 78 169 0.0 2.0 0.00 0.01 0.00 76 1014.2
20260906063542 78 151 0.0 3.0 0.00 0.01 0.00 76 1014.3
20260906063042 78 137 0.0 3.0 0.00 0.01 0.00 76 1014.3
20260906062541 78 170 0.0 2.0 0.00 0.01 0.00 76 1014.4
20260906062040 78 168 0.0 2.0 0.00 0.01 0.00 76 1014.4
20260906061541 78 155 0.0 3.0 0.00 0.01 0.00 76 1014.5
20260906061039 78 146 1.0 4.0 0.00 0.01 0.00 76 1014.6
20260906060538 79 117 1.0 3.0 0.00 0.01 0.00 75 1014.6
20260906060137 79 161 1.0 3.0 0.00 0.01 0.00 75 1014.7
20260906055537 79 195 0.0 3.0 0.00 0.01 0.00 75 1014.8
20260906055037 79 163 0.0 4.0 0.00 0.01 0.00 75 1014.9
20260906054534 79 117 1.0 4.0 0.00 0.01 0.00 75 1014.9
20260906054034 79 126 0.0 3.0 0.00 0.01 0.00 75 1015.1
20260906053534 78 176 0.0 2.0 0.00 0.01 0.00 75 1015.0
20260906053033 78 190 0.0 3.0 0.00 0.01 0.00 75 1014.9
20260906052533 78 201 0.0 3.0 0.00 0.01 0.00 75 1014.9
20260906052033 78 118 0.0 0.0 0.00 0.01 0.00 75 1015.1
20260906051531 78 206 0.0 0.0 0.00 0.01 0.00 75 1015.1
20260906051031 78 197 0.0 3.0 0.00 0.01 0.00 74 1015.1
20260906050530 78 150 0.0 2.0 0.00 0.01 0.00 74 1015.3
20260906050029 78 184 0.0 2.0 0.00 0.01 0.00 74 1015.4
20260906045529 78 124 0.0 0.0 0.00 0.01 0.00 74 1015.5
20260906045028 78 169 0.0 3.0 0.00 0.01 0.00 74 1015.4
20260906044533 78 154 0.0 3.0 0.00 0.01 0.00 74 1015.6
20260906044028 78 134 0.0 1.0 0.00 0.01 0.00 74 1015.6
20260906043529 78 160 0.0 2.0 0.00 0.01 0.00 73 1015.6
20260906043126 78 162 0.0 3.0 0.00 0.01 0.00 73 1015.5
20260906042526 78 172 0.0 3.0 0.00 0.01 0.00 73 1015.5
20260906042025 78 148 0.0 3.0 0.00 0.01 0.00 73 1015.5
20260906041525 78 213 0.0 3.0 0.00 0.01 0.00 72 1015.6
20260906041029 79 147 1.0 3.0 0.00 0.01 0.00 72 1015.6
20260906040526 79 163 0.0 0.0 0.00 0.01 0.00 72 1015.6
20260906040027 79 138 0.0 0.0 0.00 0.01 0.00 72 1015.7
20260906035522 79 110 0.0 0.0 0.00 0.01 0.01 72 1015.9
20260906035024 79 116 0.0 0.0 0.00 0.01 0.01 71 1015.9
20260906034521 79 123 0.0 0.0 0.00 0.01 0.01 71 1016.0
20260906034023 79 175 0.0 0.0 0.00 0.01 0.01 71 1016.0
20260906033521 79 157 0.0 0.0 0.00 0.01 0.01 71 1016.0
20260906033021 79 153 0.0 0.0 0.00 0.01 0.01 71 1016.1
20260906032524 79 158 0.0 0.0 0.00 0.01 0.01 71 1016.0
20260906032020 79 146 0.0 0.0 0.00 0.01 0.01 71 1016.0
20260906031534 79 147 0.0 0.0 0.00 0.01 0.01 71 1016.0
20260906031020 79 141 0.0 0.0 0.00 0.01 0.01 71 1016.1
20260906030520 79 122 0.0 0.0 0.00 0.01 0.01 70 1016.2
20260906030021 79 166 0.0 0.0 0.00 0.01 0.01 70 1016.2
20260906025520 79 125 0.0 0.0 0.00 0.01 0.01 70 1016.3
20260906025020 79 162 0.0 0.0 0.00 0.01 0.01 70 1016.2
20260906024519 79 144 0.0 1.0 0.00 0.01 0.01 70 1016.2
20260906024022 79 147 0.0 1.0 0.00 0.01 0.01 70 1016.2
20260906023519 79 181 0.0 0.0 0.00 0.01 0.01 70 1016.2
20260906023020 79 115 0.0 0.0 0.00 0.01 0.01 70 1016.1
20260906022518 79 139 0.0 0.0 0.00 0.01 0.01 70 1016.1
20260906022019 79 174 0.0 0.0 0.00 0.01 0.01 70 1016.0
20260906021519 80 150 0.0 0.0 0.00 0.01 0.01 69 1016.0
20260906021018 80 134 0.0 0.0 0.00 0.01 0.01 69 1016.1
20260906020520 80 121 0.0 0.0 0.00 0.01 0.01 69 1016.3
20260906020021 80 177 0.0 0.0 0.00 0.01 0.01 69 1016.3
20260906015522 80 155 0.0 0.0 0.00 0.01 0.01 69 1016.2
20260906015018 80 171 0.0 0.0 0.00 0.01 0.01 69 1016.2
20260906014517 80 160 0.0 0.0 0.00 0.01 0.01 69 1016.1
20260906014019 80 177 0.0 1.0 0.00 0.01 0.01 69 1016.1
20260906013516 80 167 0.0 1.0 0.00 0.01 0.01 69 1016.0
20260906013017 80 160 0.0 1.0 0.00 0.01 0.01 69 1015.9
20260906012516 80 132 0.0 1.0 0.00 0.01 0.01 69 1015.9
20260906012016 79 124 0.0 2.0 0.00 0.01 0.01 69 1015.8
20260906011517 79 169 0.0 2.0 0.00 0.01 0.01 69 1015.7
20260906011116 79 192 0.0 2.0 0.00 0.01 0.01 69 1015.7
20260906010515 79 146 0.0 1.0 0.00 0.01 0.01 69 1015.6
20260906010015 79 155 0.0 2.0 0.00 0.01 0.01 69 1015.6
20260906005515 79 181 0.0 2.0 0.00 0.01 0.01 69 1015.6
20260906005015 79 186 0.0 2.0 0.00 0.01 0.01 69 1015.5
20260906004515 79 209 0.0 3.0 0.00 0.01 0.01 69 1015.4
20260906004014 80 169 0.0 3.0 0.00 0.01 0.01 69 1015.3
20260906003514 80 155 0.0 0.0 0.00 0.01 0.01 69 1015.3
20260906003022 80 134 0.0 3.0 0.00 0.01 0.01 69 1015.2
20260906002513 80 204 0.0 3.0 0.00 0.01 0.01 68 1015.2
20260906002014 80 166 0.0 3.0 0.00 0.01 0.01 68 1015.3
20260906001513 80 166 1.0 3.0 0.00 0.01 0.01 68 1015.3
20260906001013 80 183 0.0 3.0 0.00 0.01 0.01 68 1015.2
20260906000513 80 221 0.0 3.0 0.00 0.01 0.01 68 1015.2
20260906000014 80 213 0.0 2.0 0.00 0.01 0.01 68 1015.2
20260905235513 80 161 0.0 1.0 0.00 0.01 0.01 68 1015.3
20260905235018 80 161 0.0 1.0 0.00 0.01 0.01 68 1015.2
20260905234513 80 146 0.0 1.0 0.00 0.01 0.01 68 1015.1
20260905234017 80 136 0.0 3.0 0.00 0.01 0.01 68 1015.2
20260905233512 80 93 0.0 3.0 0.00 0.01 0.01 68 1015.1
20260905233014 80 191 0.0 1.0 0.00 0.01 0.01 68 1015.0
20260905232513 81 166 0.0 1.0 0.00 0.01 0.01 68 1015.0
20260905232014 81 131 0.0 3.0 0.00 0.01 0.01 68 1014.9
20260905231513 81 143 1.0 3.0 0.00 0.01 0.01 68 1014.8
20260905231011 81 117 1.0 3.0 0.00 0.01 0.01 67 1014.8
20260905230511 81 146 1.0 3.0 0.00 0.01 0.01 67 1014.8
20260905230012 81 120 1.0 3.0 0.00 0.01 0.01 68 1015.0
20260905225511 81 143 0.0 4.0 0.00 0.01 0.01 68 1015.0
20260905225010 81 148 1.0 5.0 0.00 0.01 0.01 67 1015.0
20260905224510 82 106 1.0 7.0 0.00 0.01 0.01 67 1015.0
20260905224009 82 100 3.0 7.0 0.00 0.01 0.01 67 1014.9
20260905223509 82 130 3.0 7.0 0.00 0.01 0.01 67 1014.8
20260905223028 83 131 1.0 6.0 0.00 0.01 0.01 66 1014.9
20260905222509 83 124 2.0 6.0 0.00 0.01 0.01 66 1014.8
20260905222009 84 177 3.0 6.0 0.00 0.01 0.01 66 1014.7
20260905221527 84 174 1.0 6.0 0.00 0.01 0.01 65 1014.7
20260905221008 85 152 2.0 7.0 0.00 0.01 0.01 65 1014.6
20260905220507 85 184 3.0 8.0 0.00 0.01 0.01 64 1014.6
20260905220007 85 169 4.0 8.0 0.00 0.01 0.01 64 1014.6
20260905215511 85 120 3.0 7.0 0.00 0.01 0.01 63 1014.5
20260905215007 86 133 2.0 6.0 0.00 0.01 0.01 63 1014.6
20260905214506 85 107 3.0 7.0 0.00 0.01 0.01 63 1014.6
20260905214007 85 122 2.0 8.0 0.00 0.01 0.01 63 1014.6
20260905213506 85 131 3.0 8.0 0.00 0.01 0.01 63 1014.5
20260905213008 86 73 2.0 7.0 0.00 0.01 0.01 64 1014.5
20260905212505 86 141 2.0 7.0 0.00 0.01 0.01 64 1014.6
20260905212005 86 134 3.0 7.0 0.00 0.01 0.01 64 1014.6
20260905211512 86 96 2.0 8.0 0.00 0.01 0.01 64 1014.4
20260905211006 87 133 3.0 8.0 0.00 0.01 0.01 63 1014.5
20260905210505 87 155 3.0 8.0 0.00 0.01 0.01 61 1014.4
20260905210006 87 117 3.0 8.0 0.00 0.01 0.01 61 1014.2
20260905205504 86 197 4.0 10.0 0.00 0.01 0.01 61 1014.3
20260905205004 86 109 4.0 10.0 0.00 0.01 0.01 62 1014.1
20260905204605 86 66 3.0 8.0 0.00 0.01 0.01 63 1014.0
20260905204002 86 154 2.0 11.0 0.00 0.01 0.01 64 1014.1
20260905203503 87 127 5.0 9.0 0.00 0.01 0.01 63 1014.2
20260905203002 88 115 5.0 9.0 0.00 0.01 0.01 62 1014.1
20260905202500 88 165 3.0 8.0 0.00 0.01 0.01 62 1014.0
20260905202002 88 115 3.0 9.0 0.00 0.01 0.01 62 1014.0
20260905201503 88 132 4.0 10.0 0.00 0.01 0.01 62 1014.0
20260905201100 88 181 4.0 11.0 0.00 0.01 0.01 62 1013.9
20260905200601 88 203 2.0 10.0 0.00 0.01 0.01 63 1013.7
20260905200135 88 165 5.0 10.0 0.00 0.01 0.01 62 1013.7
20260905195601 88 192 5.0 10.0 0.00 0.01 0.01 62 1013.6
20260905195059 88 122 4.0 9.0 0.00 0.01 0.01 62 1013.6
20260905194610 88 118 4.0 10.0 0.00 0.01 0.01 62 1013.5
20260905194059 89 101 4.0 10.0 0.00 0.01 0.01 61 1013.6
20260905193600 89 224 4.0 8.0 0.00 0.01 0.01 60 1013.6
20260905193059 89 129 4.0 8.0 0.00 0.01 0.01 59 1013.7
20260905192558 89 108 3.0 11.0 0.00 0.01 0.01 60 1013.7
20260905192058 90 137 6.0 11.0 0.00 0.01 0.01 59 1013.8
20260905191557 90 122 3.0 11.0 0.00 0.01 0.01 60 1013.8
20260905191100 89 175 4.0 10.0 0.00 0.01 0.01 60 1013.8
20260905190556 89 152 4.0 10.0 0.00 0.01 0.01 60 1013.8